OneWeb SL0244

operational
NORAD ID: 48776 Int'l Des: 2021-045 Owner: ONEWEBN Country: UK Constellation: oneweb
LEOCIRCULARPOLARONEWEB_TYPE

Über OneWeb SL0244

Beschreibung wird geladen...

Live-Position

3D-Globus wird geladen...

Nächste Überflüge

Höhenverlauf

Altitude vs Time

uPlot chart will show altitude changes over time

Zweizeiliger Elementsatz

1 48776U 21045K 25258.58352923 -.00000050 00000-0 -16647-3 0 9997
2 48776 87.9039 313.9523 0001794 91.7206 268.4130 13.15549007208865
Epoch: 15. Sept. 2025 • Age: 14 hours

Aktueller Status

Höhe 1228.5 km
Geschwindigkeit 7.24 km/s
Subsatellitenpunkt -67.33°S, 82.94°E
Startdatum 28. Mai 2021
Alter 4.3 years
Typ internet

Technische Details

Klassifizierung Payload
Masse 148.00 kg
Trockenmasse 140.00 kg
Gesamtmasse 148.00 kg
Länge 1.30 m
Durchmesser 1.00 m
Spannweite 5.00 m
Form Trapezoid+2 pan
Hersteller ONEWUS
Bus-Typ ARROW
Phasenstatus In Orbit
Besitzer/Staat ONEWEBN/UK

Große Konstellationen

Loading constellations...